CW4185 Weather Reports


time (UTC)temp
F
wind
direction
speed
knots
gust
knots
rain 1hr
in
rain 24hr
in
rain mn
in
humidity
%
barometer
mb
20260505171146 78 167 6.1 13.0 0.00 0.00 0.00 68 1012.9
20260505170647 78 161 7.8 14.8 0.00 0.00 0.00 67 1012.9
20260505170147 79 159 8.7 15.6 0.00 0.00 0.00 67 1012.9
20260505165651 78 182 4.3 13.0 0.00 0.00 0.00 69 1012.9
20260505165148 78 158 5.2 13.0 0.00 0.00 0.00 70 1012.9
20260505164646 78 144 13.0 13.9 0.00 0.00 0.00 69 1012.5
20260505164147 78 200 7.0 13.9 0.00 0.00 0.00 68 1012.9
20260505163647 78 170 7.8 13.9 0.00 0.00 0.00 69 1012.9
20260505163146 78 160 7.0 12.2 0.00 0.00 0.00 69 1012.9
20260505162647 78 177 6.1 13.9 0.00 0.00 0.00 69 1012.9
20260505162148 78 170 7.0 13.9 0.00 0.00 0.00 67 1012.9
20260505161647 78 161 7.8 11.3 0.00 0.00 0.00 69 1012.9
20260505161147 77 176 5.2 13.0 0.00 0.00 0.00 69 1012.9
20260505160648 78 161 5.2 13.9 0.00 0.00 0.00 68 1012.9
20260505160148 78 196 7.0 14.8 0.00 0.00 0.00 67 1012.5
20260505153147 77 151 8.7 13.0 0.00 0.00 0.00 69 1013.2
20260505152647 77 175 6.1 13.9 0.00 0.00 0.00 69 1013.2
20260505152146 76 174 7.8 13.9 0.00 0.00 0.00 70 1012.9
20260505151647 77 183 7.8 11.3 0.00 0.00 0.00 70 1013.2
20260505151147 77 174 3.5 10.4 0.00 0.00 0.00 72 1012.9
20260505150647 76 165 7.0 13.9 0.00 0.00 0.00 73 1012.9
20260505150146 75 147 9.6 11.3 0.00 0.00 0.00 73 1013.2
20260505140647 74 162 5.2 11.3 0.00 0.00 0.00 77 1013.2
20260505140147 74 166 9.6 11.3 0.00 0.00 0.00 77 1013.2
20260505130146 70 136 2.6 5.2 0.00 0.00 0.00 83 1012.5
20260505124649 69 132 4.3 6.1 0.00 0.00 0.00 84 1012.9
20260505124147 69 157 5.2 7.0 0.00 0.00 0.00 84 1012.2
20260505123647 69 160 4.3 7.8 0.00 0.00 0.00 84 1012.5
20260505123147 68 156 2.6 4.3 0.00 0.00 0.00 85 1012.2
20260505122647 68 156 4.3 6.1 0.00 0.00 0.00 85 1012.2
20260505122147 68 159 6.1 7.0 0.00 0.00 0.00 86 1012.2
20260505121646 68 154 2.6 5.2 0.00 0.00 0.00 86 1012.2
20260505121147 67 146 2.6 6.1 0.00 0.00 0.00 87 1012.2
20260505120646 67 151 2.6 6.1 0.00 0.00 0.00 87 1012.2
20260505120147 67 140 3.5 4.3 0.00 0.00 0.00 88 1012.2
20260505115646 66 142 3.5 4.3 0.00 0.00 0.00 88 1012.2
20260505115146 66 152 3.5 4.3 0.00 0.00 0.00 89 1012.2
20260505114647 66 150 1.7 4.3 0.00 0.00 0.00 89 1011.9
20260505114146 66 151 1.7 2.6 0.00 0.00 0.00 89 1012.2
20260505113647 66 153 2.6 3.5 0.00 0.00 0.00 89 1012.2
20260505113146 66 151 1.7 4.3 0.00 0.00 0.00 89 1012.2
20260505112647 66 137 2.6 5.2 0.00 0.00 0.00 89 1012.2
20260505112147 66 139 2.6 5.2 0.00 0.00 0.00 89 1012.2
20260505111646 66 133 3.5 4.3 0.00 0.00 0.00 89 1012.2
20260505111147 66 122 2.6 3.5 0.00 0.00 0.00 89 1011.9
20260505110652 66 149 2.6 4.3 0.00 0.00 0.00 88 1012.2
20260505110147 65 138 1.7 4.3 0.00 0.00 0.00 89 1012.2
20260505102146 65 135 2.6 3.5 0.00 0.00 0.00 88 1012.2
20260505101648 65 126 1.7 2.6 0.00 0.00 0.00 87 1012.2
20260505101146 65 146 2.6 3.5 0.00 0.00 0.00 87 1012.2
20260505100646 65 141 1.7 2.6 0.00 0.00 0.00 87 1012.2
20260505100146 65 124 0.9 1.7 0.00 0.00 0.00 87 1012.5
20260505095646 65 126 0.9 1.7 0.00 0.00 0.00 87 1012.5
20260505095146 65 96 0.0 1.7 0.00 0.00 0.00 86 1012.2
20260505094648 65 144 2.6 3.5 0.00 0.00 0.00 86 1012.2
20260505094147 65 129 0.0 1.7 0.00 0.00 0.00 86 1012.5
20260505093646 65 133 0.9 1.7 0.00 0.00 0.00 85 1012.2
20260505093146 65 124 1.7 3.5 0.00 0.00 0.00 85 1012.2
20260505092647 65 144 2.6 3.5 0.00 0.00 0.00 85 1011.9
20260505092146 65 138 1.7 4.3 0.00 0.00 0.00 85 1011.9
20260505091647 65 106 0.9 2.6 0.00 0.00 0.00 85 1012.2
20260505091147 65 134 1.7 3.5 0.00 0.00 0.00 84 1012.2
20260505090647 65 135 1.7 2.6 0.00 0.00 0.00 84 1011.9
20260505090148 65 73 0.9 2.6 0.00 0.00 0.00 84 1012.2
20260505085649 65 94 1.7 3.5 0.00 0.00 0.00 84 1012.2
20260505085147 65 138 1.7 3.5 0.00 0.00 0.00 84 1011.9
20260505084647 66 136 3.5 3.5 0.00 0.00 0.00 83 1012.2
20260505084146 66 129 2.6 3.5 0.00 0.00 0.00 83 1012.2
20260505083646 66 124 1.7 3.5 0.00 0.00 0.00 83 1012.2
20260505083146 66 137 2.6 3.5 0.00 0.00 0.00 83 1012.2
20260505082647 66 120 2.6 2.6 0.00 0.00 0.00 82 1011.9
20260505082147 66 121 0.9 2.6 0.00 0.00 0.00 82 1012.2
20260505081647 66 156 2.6 2.6 0.00 0.00 0.00 82 1012.2
20260505081147 66 146 0.9 2.6 0.00 0.00 0.00 82 1012.2
20260505080647 66 145 3.5 5.2 0.00 0.00 0.00 82 1012.2
20260505080149 66 144 2.6 4.3 0.00 0.00 0.00 81 1012.2
20260505075647 66 138 2.6 3.5 0.00 0.00 0.00 81 1012.2
20260505075148 66 125 2.6 4.3 0.00 0.00 0.00 81 1012.2
20260505074647 65 110 0.9 3.5 0.00 0.00 0.00 81 1012.5
20260505074147 66 69 0.0 1.7 0.00 0.00 0.00 81 1012.5
20260505073647 65 112 1.7 4.3 0.00 0.00 0.00 81 1012.5
20260505073147 65 134 1.7 2.6 0.00 0.00 0.00 81 1012.5
20260505072647 65 129 1.7 2.6 0.00 0.00 0.00 81 1012.5
20260505072146 65 139 2.6 2.6 0.00 0.00 0.00 81 1012.5
20260505071647 65 112 0.0 2.6 0.00 0.00 0.00 80 1012.5
20260505071147 65 120 1.7 2.6 0.00 0.00 0.00 80 1012.5
20260505070647 65 154 0.0 1.7 0.00 0.00 0.00 80 1012.5
20260505070148 65 118 0.0 2.6 0.00 0.00 0.00 79 1012.5
20260505065649 65 140 1.7 2.6 0.00 0.00 0.00 80 1012.9
20260505065147 65 88 0.0 1.7 0.00 0.00 0.00 79 1012.9
20260505064647 65 129 0.9 1.7 0.00 0.00 0.00 79 1012.9
20260505064147 65 146 1.7 2.6 0.00 0.00 0.00 79 1013.2
20260505063646 65 128 2.6 2.6 0.00 0.00 0.00 79 1013.2
20260505063147 65 136 1.7 2.6 0.00 0.00 0.00 79 1013.2
20260505062646 65 104 0.0 0.9 0.00 0.00 0.00 79 1013.5
20260505062149 65 168 0.9 1.7 0.00 0.00 0.00 78 1013.2
20260505061646 65 138 0.0 0.9 0.00 0.00 0.00 77 1013.5
20260505061146 66 129 0.0 0.9 0.00 0.00 0.00 76 1013.5
20260505060647 65 119 0.9 1.7 0.00 0.00 0.00 77 1013.5
20260505060147 66 124 0.0 0.9 0.00 0.00 0.00 76 1013.5
20260505055647 66 116 0.9 1.7 0.00 0.00 0.00 76 1013.5
20260505055146 66 104 0.0 1.7 0.00 0.00 0.00 76 1013.5
20260505054647 66 139 0.0 1.7 0.00 0.00 0.00 76 1013.5
20260505054147 66 136 1.7 2.6 0.00 0.00 0.00 76 1013.5
20260505053646 66 133 0.9 1.7 0.00 0.00 0.00 75 1013.5
20260505053147 66 139 1.7 2.6 0.00 0.00 0.00 75 1013.5
20260505052646 66 131 1.7 2.6 0.00 0.00 0.00 76 1013.2
20260505052146 66 116 0.9 2.6 0.00 0.00 0.00 75 1013.2
20260505051648 66 101 0.9 2.6 0.00 0.00 0.00 75 1013.2
20260505051148 66 108 0.0 1.7 0.00 0.00 0.00 74 1013.5
20260505050646 66 130 2.6 3.5 0.00 0.00 0.00 75 1013.2
20260505050148 66 85 2.6 3.5 0.00 0.00 0.00 74 1013.2
20260505041646 67 148 1.7 2.6 0.00 0.00 0.00 70 1013.9
20260505041147 67 141 2.6 3.5 0.00 0.00 0.00 70 1013.9
20260505040647 67 135 2.6 3.5 0.00 0.00 0.00 70 1013.9
20260505040146 67 150 1.7 3.5 0.00 0.00 0.00 69 1013.9
20260505035647 67 147 2.6 2.6 0.00 0.00 0.00 69 1013.9
20260505035147 68 155 1.7 3.5 0.00 0.00 0.00 69 1014.2
20260505034647 68 152 1.7 3.5 0.00 0.00 0.00 68 1013.9
20260505034148 68 157 0.9 4.3 0.00 0.00 0.00 68 1013.5
20260505033646 68 144 2.6 4.3 0.00 0.00 0.00 68 1013.5
20260505033148 68 163 3.5 4.3 0.00 0.00 0.00 68 1013.9
20260505032647 68 162 3.5 6.1 0.00 0.00 0.00 67 1013.9
20260505032149 68 127 5.2 7.0 0.00 0.00 0.00 67 1013.5
20260505031646 68 142 4.3 6.1 0.00 0.00 0.00 67 1013.9
20260505031147 68 151 3.5 6.1 0.00 0.00 0.00 67 1013.5
20260505030648 68 168 2.6 5.2 0.00 0.00 0.00 67 1013.9
20260505030148 68 166 2.6 7.0 0.00 0.00 0.00 66 1013.5
20260505025649 68 143 3.5 7.8 0.00 0.00 0.00 66 1013.9
20260505025148 68 147 4.3 7.0 0.00 0.00 0.00 66 1013.9
20260505024648 68 170 2.6 5.2 0.00 0.00 0.00 66 1013.9
20260505024149 68 128 5.2 7.0 0.00 0.00 0.00 65 1013.9
20260505023646 68 135 3.5 7.0 0.00 0.00 0.00 65 1013.9
20260505023148 68 147 1.7 7.0 0.00 0.00 0.00 65 1013.9
20260505022649 68 152 3.5 7.0 0.00 0.00 0.00 65 1013.9
20260505022147 69 149 5.2 7.8 0.00 0.00 0.00 65 1013.5
20260505021649 69 141 5.2 7.8 0.00 0.00 0.00 64 1013.9
20260505021149 69 145 2.6 6.1 0.00 0.00 0.00 64 1013.9
20260505020650 68 156 3.5 8.7 0.00 0.00 0.00 64 1013.5
20260505020146 69 162 4.3 6.1 0.00 0.00 0.00 65 1013.5
20260505015647 69 160 2.6 4.3 0.00 0.00 0.00 64 1013.5
20260505015146 69 145 2.6 6.1 0.00 0.00 0.00 63 1013.5
20260505014646 69 153 2.6 7.8 0.00 0.00 0.00 63 1013.5
20260505014146 69 150 3.5 5.2 0.00 0.00 0.00 62 1013.2
20260505013647 69 146 2.6 6.1 0.00 0.00 0.00 62 1013.5
20260505013147 69 136 2.6 6.1 0.00 0.00 0.00 62 1013.2
20260505012646 69 154 3.5 4.3 0.00 0.00 0.00 62 1013.5
20260505012146 70 163 2.6 3.5 0.00 0.00 0.00 61 1013.5
20260505011648 70 164 4.3 5.2 0.00 0.00 0.00 61 1013.5
20260505011147 70 158 4.3 5.2 0.00 0.00 0.00 61 1013.5
20260505010647 70 166 4.3 5.2 0.00 0.00 0.00 60 1013.5
20260505010148 70 140 4.3 7.0 0.00 0.00 0.00 59 1013.5
20260505005648 70 156 4.3 6.1 0.00 0.00 0.00 59 1013.5
20260505005148 71 158 2.6 5.2 0.00 0.00 0.00 58 1013.5
20260505004650 71 142 2.6 5.2 0.00 0.00 0.00 58 1013.5
20260505004146 71 149 5.2 6.1 0.00 0.00 0.00 58 1013.5
20260505003648 71 166 5.2 7.0 0.00 0.00 0.00 57 1013.5
20260505003147 71 138 3.5 7.0 0.00 0.00 0.00 57 1013.5
20260505002646 71 161 5.2 7.0 0.00 0.00 0.00 57 1013.5
20260505002146 72 159 2.6 7.0 0.00 0.00 0.00 56 1013.5
20260505001646 72 159 3.5 7.0 0.00 0.00 0.00 54 1013.9
20260505001147 72 177 3.5 7.0 0.00 0.00 0.00 54 1013.9
20260505000646 72 164 6.1 7.8 0.00 0.00 0.00 54 1013.5
20260505000153 72 153 4.3 7.0 0.00 0.00 0.00 53 1013.5
20260504235646 72 159 3.5 7.0 0.00 0.00 0.00 52 1013.5
20260504235146 73 153 5.2 9.6 0.00 0.00 0.00 52 1013.5
20260504234647 73 149 5.2 8.7 0.00 0.00 0.00 51 1013.5
20260504234146 73 170 6.1 8.7 0.00 0.00 0.00 51 1013.9
20260504233647 73 182 6.1 9.6 0.00 0.00 0.00 51 1013.9
20260504233148 73 127 5.2 8.7 0.00 0.00 0.00 52 1013.9
20260504232646 73 161 7.0 8.7 0.00 0.00 0.00 50 1013.9
20260504232146 74 173 7.0 9.6 0.00 0.00 0.00 49 1013.9
20260504231157 74 172 6.1 8.7 0.00 0.00 0.00 49 1014.2
20260504230646 74 165 7.0 12.2 0.00 0.00 0.00 48 1014.2
20260504230147 74 195 7.8 12.2 0.00 0.00 0.00 48 1014.2
20260504225647 74 186 7.0 9.6 0.00 0.00 0.00 48 1014.2
20260504225147 74 173 8.7 9.6 0.00 0.00 0.00 47 1014.2
20260504224646 74 163 5.2 10.4 0.00 0.00 0.00 47 1014.2
20260504224147 74 150 5.2 11.3 0.00 0.00 0.00 46 1014.2
20260504223646 74 164 3.5 9.6 0.00 0.00 0.00 46 1014.2
20260504223146 75 153 7.8 11.3 0.00 0.00 0.00 45 1014.2
20260504222647 74 130 2.6 6.1 0.00 0.00 0.00 45 1014.2
20260504222146 75 165 8.7 11.3 0.00 0.00 0.00 45 1014.2
20260504221646 75 172 7.8 10.4 0.00 0.00 0.00 45 1014.2
20260504221147 75 174 7.0 9.6 0.00 0.00 0.00 44 1014.6
20260504220646 75 169 6.1 9.6 0.00 0.00 0.00 43 1014.6
20260504220147 75 164 7.0 9.6 0.00 0.00 0.00 44 1014.6
20260504215646 75 186 4.3 11.3 0.00 0.00 0.00 43 1014.6
20260504215146 76 180 6.1 7.8 0.00 0.00 0.00 43 1014.6
20260504214646 75 149 7.0 11.3 0.00 0.00 0.00 43 1014.2
20260504214147 75 179 7.8 10.4 0.00 0.00 0.00 44 1014.2
20260504213646 75 165 5.2 11.3 0.00 0.00 0.00 44 1014.2
20260504213146 75 169 9.6 11.3 0.00 0.00 0.00 44 1014.6
20260504212647 75 143 7.8 10.4 0.00 0.00 0.00 44 1014.6
20260504212147 75 168 9.6 11.3 0.00 0.00 0.00 44 1014.6
20260504211647 75 207 7.0 8.7 0.00 0.00 0.00 43 1014.9
20260504211147 75 180 6.1 8.7 0.00 0.00 0.00 43 1014.9
20260504210648 75 195 7.0 11.3 0.00 0.00 0.00 42 1014.6
20260504210147 75 154 9.6 10.4 0.00 0.00 0.00 42 1014.6
20260504205647 76 160 8.7 11.3 0.00 0.00 0.00 41 1014.9
20260504205150 75 180 10.4 12.2 0.00 0.00 0.00 40 1014.9
20260504204647 75 159 6.1 11.3 0.00 0.00 0.00 40 1014.9
20260504204147 75 181 7.0 9.6 0.00 0.00 0.00 41 1015.2
20260504203646 75 164 11.3 12.2 0.00 0.00 0.00 40 1015.2
20260504203146 75 180 7.8 12.2 0.00 0.00 0.00 40 1015.2
20260504202650 76 155 6.1 13.0 0.00 0.00 0.00 38 1015.2
20260504202146 75 120 3.5 7.0 0.00 0.00 0.00 40 1015.2
20260504201647 76 169 6.1 10.4 0.00 0.00 0.00 38 1015.6
20260504201146 76 176 3.5 11.3 0.00 0.00 0.00 38 1015.6
20260504200647 75 246 7.0 10.4 0.00 0.00 0.00 39 1015.6
20260504200146 76 178 6.1 9.6 0.00 0.00 0.00 39 1015.9
20260504195646 77 180 7.8 12.2 0.00 0.00 0.00 39 1015.6
20260504195147 75 42 4.3 12.2 0.00 0.00 0.00 39 1015.9
20260504194646 76 240 4.3 13.0 0.00 0.00 0.00 37 1015.9
20260504194146 76 202 5.2 11.3 0.00 0.00 0.00 38 1015.9
20260504193646 75 185 3.5 10.4 0.00 0.00 0.00 38 1016.3
20260504193147 76 186 4.3 9.6 0.00 0.00 0.00 40 1015.9
20260504192647 76 175 7.8 10.4 0.00 0.00 0.00 39 1015.9
20260504192146 76 194 10.4 11.3 0.00 0.00 0.00 39 1015.9
20260504191648 75 159 8.7 13.9 0.00 0.00 0.00 40 1016.3
20260504191146 75 193 7.0 11.3 0.00 0.00 0.00 40 1015.9
20260504190647 75 169 7.8 12.2 0.00 0.00 0.00 40 1016.3
20260504190149 76 170 8.7 14.8 0.00 0.00 0.00 40 1016.6
20260504185646 75 171 4.3 9.6 0.00 0.00 0.00 40 1016.6
20260504185147 75 183 11.3 14.8 0.00 0.00 0.00 40 1016.6
20260504184646 75 171 6.1 11.3 0.00 0.00 0.00 40 1016.3
20260504184147 75 169 6.1 10.4 0.00 0.00 0.00 40 1016.9
20260504183647 75 183 5.2 10.4 0.00 0.00 0.00 41 1016.6
20260504183147 75 159 7.0 14.8 0.00 0.00 0.00 40 1016.9
20260504182647 75 205 5.2 10.4 0.00 0.00 0.00 42 1016.9
20260504182146 75 179 8.7 14.8 0.00 0.00 0.00 41 1016.9
20260504181647 75 177 6.1 11.3 0.00 0.00 0.00 42 1016.9
20260504181148 74 213 6.1 11.3 0.00 0.00 0.00 42 1016.6
20260504180647 74 197 5.2 9.6 0.00 0.00 0.00 42 1016.6
20260504180147 75 185 7.0 13.0 0.00 0.00 0.00 42 1016.9
20260504175647 75 195 7.8 13.0 0.00 0.00 0.00 43 1016.9
20260504175147 75 195 7.0 13.0 0.00 0.00 0.00 44 1016.6
20260504174647 75 219 8.7 9.6 0.00 0.00 0.00 43 1016.9
20260504174146 75 205 6.1 13.0 0.00 0.00 0.00 41 1017.3
20260504173646 75 158 7.0 8.7 0.00 0.00 0.00 44 1016.9
20260504173147 75 168 2.6 6.1 0.00 0.00 0.00 45 1016.6
20260504172647 75 207 5.2 6.1 0.00 0.00 0.00 44 1016.9
20260504172147 75 202 6.1 9.6 0.00 0.00 0.00 44 1016.9
20260504171647 75 173 2.6 7.8 0.00 0.00 0.00 45 1016.9